COSMOS 2491 DEB, 57566

Orbit data source: Space-Track

COSMOS 2491 DEB, 57566 is space debris in LEO originally from a launch on Wed, 25 Dec 2013 UTC launched from the Plesetsk Missile And Space Complex (PKMTR). Debris objects in space refer to the collection of defunct objects orbiting the Earth. Examples of debris include non-operational satellites, rocket bodies, and fragments generated from explosions, collisions, or faulty payload assembly.

Loading next visibility...
Identifier
57566, 2013-076BD
Orbit
LEO
Country
Flag of CISCIS
Related business
Manufacturer
TsNIIKhM
Mission
Spacecraft
Bus & Motor
Unknown
Mass
Unknown
Launch date (UTC)
2013-12-25 (13 years ago)
Launch vehicle
Unknown
Launch site
Plesetsk Missile And Space Complex (PKMTR)
Object type
Payload
Rocket body
Debris
Shape & HBR
Unknown shape, 0.1 m
Radar Cross Section
Small (<0.1 m²)

Expand to show TLE details & history
Last TLE update: 2 months ago

TLE from 2 months ago
0 COSMOS 2491 DEB
1 57566U 13076BD  26186.45199584  .00006959  00000-0  31046-1 0  9998
2 57566  82.4489  92.4955 0204051  57.2365 304.8213 12.72621951146244
Epoch: 2026-07-05T10:50Z
TLE epoch observation values (Epoch: 2026-07-05T10:50:52.440Z)
Latitude
-0.00005°
Longitude
6.32586°
Altitude
1,285.923 km
Speed
7.254 km/s
True Right ascension
06h 09m 58s
True Declination
0° 00' 00"
Sunlit
Object was in daylight at epoch
Visualization orbit readout
Latitude
Unknown
Longitude
Unknown
Altitude
Unknown
Speed
Unknown
Apparent Right ascension
Unknown
Apparent Declination
Unknown
Sunlit
N/A
Visualization observer readout
Local Sidereal Time
00:07:10
Azimuth
Unknown
Elevation
Unknown
Doppler factor
Unknown
Orbital elements
Apogee altitude
1,526.66 km
Perigee altitude
1,210.514 km
Semi-major axis
7,746.724 km
Eccentricity
0.02041
Inclination
82.4489°
RAAN
92.4955°
Arg. of periapsis
57.2365°
True anomaly
302.87376°
Mean anomaly
304.8213°
Eccentric anomaly
303.85035°
Mean motion
3.18322 °/min
Orbital period
113.09 mins
BSTAR
0.031046
Loading maneuver chart data...
Computing Atmospheric mass density...
Loading historical data...
Loading historical data...
Loading historical data...
Loading historical data...
Loading historical data...
Loading historical data...
Loading historical data...

Documentation

Showing up to 5 results
|